5ta. Fecha - Concordia

Avatar de Usuario
RobertoLP
Mensajes: 2717
Registrado: 24 Oct 2016, 20:25
Ubicación: Santa Rosa La Pampa
Contactar:

5ta. Fecha - Concordia

Mensaje por RobertoLP » 02 Jun 2019, 10:31

TN C2 - Concordia - Clasificación

POS. Nº Piloto AUTO Tiempo DIF.

1 1 Nicolas POSCO FIESTA KINETIC 1:52.665
2 5 Gaston GRASSO TOYOTA ETIOS 1:52.678 0.013
3 28 Agustin LOPEZ DONZELLI RENAULT CLIO 1:52.843 0.178
4 3 Julian LEPPHAILLE TOYOTA ETIOS 1:53.000 0.335
5 43 Walter LOPEZ NISSAN MARCH 1:53.008 0.343
6 21 Gabriel SCORDIA FIESTA KINETIC 1:53.105 0.440
7 18 Marcos FERNANDEZ NISSAN MARCH 1:53.124 0.459
8 14 Ever FRANETOVICH FIAT PALIO 1:53.275 0.610
9 69 Agustin HERRERA RENAULT CLIO 1:53.282 0.617
10 63 Renzo TESTA FIAT PALIO 1:53.291 0.626
11 26 Damian KIRSTEIN PEUGEOT 208 1:53.552 0.887
12 31 Facundo LEANEZ TOYOTA ETIOS 1:53.605 0.940
13 35 Diego LEANEZ TOYOTA ETIOS 1:53.637 0.972
14 120 Geronimo NUÑEZ NISSAN MARCH 1:53.679 1.014
15 6 Miguel CIAURRO VW TREND 1:53.725 1.060
16 114 Matias SIGNORELLI NISSAN MARCH 1:53.736 1.071
17 25 Sebastian PEREZ CHEVROLET ONIX 1:53.855 1.190
18 48 Horacio COSTA TOYOTA ETIOS 1:54.231 1.566
19 11 Gaston IANSA FIESTA KINETIC 1:54.346 1.681
20 117 Stefano DI PALMA CHEVROLET ONIX 1:54.349 1.684
21 24 Juan I. CANELA TOYOTA ETIOS 1:54.356 1.691
22 78 Alejandro WEIMANN CHEVROLET CORSA 1:54.383 1.718
23 141 Juan Pablo ROTONDO FIESTA KINETIC 1:54.447 1.782
24 13 Joel BORGOBELLO VW TREND 1:54.593 1.928
25 66 Martin ALESSI FIESTA KINETIC 1:54.692 2.027
26 39 Alejandro VALDERREY FIAT PALIO 1:54.985 2.320
27 32 Sergio FERNANDEZ NISSAN MARCH 1:55.303 2.638
28 49 Juan Carlos POLINI RENAULT CLIO 1:55.395 2.730
29 36 Alejo BORGIANI VW TREND 1:56.247 3.582
30 65 Fernando GOMEZ FREDES PEUGEOT 208 1:56.338 3.673
31 54 Facundo ROTONDO FIESTA KINETIC 1:56.340 3.675

Avatar de Usuario
RobertoLP
Mensajes: 2717
Registrado: 24 Oct 2016, 20:25
Ubicación: Santa Rosa La Pampa
Contactar:

Re: 5ta. Fecha - Concordia

Mensaje por RobertoLP » 02 Jun 2019, 10:31

1º Serie - TN Clase 2 - Concordia - 5º Fecha

Pos Auto Piloto Tiempo Diff

1 1 Nicolas POSCO 1:52.849
2 69 Agustin HERRERA 1:54.000 3.148
3 6 Miguel CIAURRO 1:54.243 5.341
4 43 Walter LOPEZ 1:54.526 5.940
5 25 Sebastian PEREZ 1:54.793 6.408
6 26 Damian KIRSTEIN 1:54.861 6.977
7 13 Joel BORGOBELLO 1:54.890 7.562
8 28 Agustin LOPEZ DONZELLI 1:55.328 8.035
9 32 Sergio FERNANDEZ 1:55.289 8.685
10 111 Joel GASSMANN 1:55.277 9.211
11 11 Gaston IANSA 1:55.413 9.521
12 54 Facundo ROTONDO 1:55.584 10.365
13 35 Diego LEANEZ 1:55.496 12.591
14 36 Alejo BORGIANI 1:55.627 21.138
18 Marcos FERNANDEZ
78 Alejandro WEIMANN
24 Juan I. CANELA

2º Serie - TN Clase 2 - 5º Fecha - Concordia

Pos Auto Piloto Tiempo Diff

1 5 Gaston GRASSO 1:54.544
2 3 Julian LEPPHAILLE 1:54.344 0.375
3 21 Gabriel SCORDIA 1:54.250 1.951
4 14 Ever FRANETOVICH 1:54.394 2.592
5 63 Renzo TESTA 1:54.370 2.998
6 120 Geronimo NUÑEZ 1:54.279 3.531
7 31 Facundo LEANEZ 1:54.686 7.497
8 65 Fernando GOMEZ FREDES 1:56.230 18.015
9 48 Horacio COSTA 1:54.726 19.204
10 141 Juan Pablo ROTONDO 1:56.123 20.182
11 117 Stefano DI PALMA 1:56.575 20.721
12 114 Matias SIGNORELLI 1:57.873 39.879
13 66 Martin ALESSI 1:56.325 1 Vuelta
39 Alejandro VALDERREY 1:56.289 3 Vueltas
159 Agustín BONOMO

Avatar de Usuario
RobertoLP
Mensajes: 2717
Registrado: 24 Oct 2016, 20:25
Ubicación: Santa Rosa La Pampa
Contactar:

Re: 5ta. Fecha - Concordia

Mensaje por RobertoLP » 02 Jun 2019, 10:32

Clasificación - TN Clase 3 - Concordia - 5º Fecha

Pos Auto Piloto Tiempo Diff

1 2 Facundo CHAPUR 1:48.512
2 1 Leonel PERNIA 1:48.667 0.155
3 20 Juan PIPKIN 1:48.753 0.241
4 5 Emanuel MORIATIS 1:49.063 0.551
5 92 Rudi BUNDZIAK 1:49.071 0.559
6 138 Luis Jose DI PALMA 1:49.343 0.831
7 9 Manuel URCERA 1:49.377 0.865
8 17 Alfonso DOMENECH 1:49.397 0.885
9 48 Manuel LUQUE 1:49.421 0.909
10 100 Carlos OKULOVICH 1:49.467 0.955
11 77 Mariano PERNIA 1:49.514 1.002
12 82 Mauricio LAMBIRIS 1:49.520 1.008
13 19 Leonel LARRAURI 1:49.521 1.009
14 68 Julian SANTERO 1:49.524 1.012
15 11 Jeronimo TETI 1:49.530 1.018
16 99 Juan M. ELUCHANS 1:49.587 1.075
17 8 Fabian YANNANTUONI 1:49.603 1.091
18 113 Luciano VENTRICELLI 1:49.711 1.199
19 6 Fabricio PEZZINI 1:49.741 1.229
20 18 Matias MUÑOZ MARCHESI 1:49.894 1.382
21 21 Leandro CARDUCCI 1:49.919 1.407
22 22 Adrian PERCAZ 1:49.976 1.464
23 61 Diego NOCETI 1:49.988 1.476
24 59 Emmanuel CACERES 1:50.051 1.539
25 69 Esteban CISTOLA 1:50.165 1.653
26 15 Adrian CHIRIANO 1:50.401 1.889
27 14 Ezequiel BOSIO 1:50.652 2.140
28 116 Christian BODRATO MIONETTO 1:50.688 2.176
29 123 Matias MENVIELLE 1:50.788 2.276
30 29 Juan P. ROSSOTTI 1:50.860 2.348
31 25 Matias COHEN 1:51.102 2.590
32 122 Andre LAFON 1:51.435 2.923
33 72 Santiago ALVAREZ 1:51.673 3.161

Avatar de Usuario
RobertoLP
Mensajes: 2717
Registrado: 24 Oct 2016, 20:25
Ubicación: Santa Rosa La Pampa
Contactar:

Re: 5ta. Fecha - Concordia

Mensaje por RobertoLP » 02 Jun 2019, 10:32

1º Serie - TN Clase 3 - Concordia - 5º Fecha

Pos Auto Piloto Marca Tiempo Dif

1 2 Facundo CHAPUR FORD FOCUS 1:50.327
2 20 Juan PIPKIN CHEVROLET CRUZE 1:50.209 1.260
3 9 Manuel URCERA NEW CIVIC 1:50.168 2.019
4 92 Rudi BUNDZIAK C4 LOUNGE 1:50.178 2.255
5 77 Mariano PERNIA CHEVROLET CRUZE 1:50.865 2.932
6 8 Fabian YANNANTUONI FIAT TIPO 1:50.912 3.355
7 19 Leonel LARRAURI NEW CIVIC 1:50.533 3.655
8 11 Jeronimo TETI CHEVROLET CRUZE 1:51.487 7.617
9 25 Matias COHEN FORD FOCUS 1:52.389 10.364
10 69 Esteban CISTOLA FORD FOCUS 1:52.634 11.152
11 14 Ezequiel BOSIO C4 LOUNGE 1:52.594 15.644
12 21 Leandro CARDUCCI FORD FOCUS 1:51.940 19.771
13 123 Matias MENVIELLE CHEVROLET CRUZE 1:52.836 22.373
14 72 Santiago ALVAREZ C4 LOUNGE 1:51.975 1:23.612
6 Fabricio PEZZINI TOYOTA COROLLA 5 Vueltas
61 Diego NOCETI FORD FOCUS 5 Vueltas

Avatar de Usuario
JUAN EDUARDO
Mensajes: 847
Registrado: 22 Oct 2016, 14:37
Ubicación: Córdoba

Re: 5ta. Fecha - Concordia

Mensaje por JUAN EDUARDO » 02 Jun 2019, 14:02

No está boero en la c3?
Imagen

pablomonterio
Mensajes: 526
Registrado: 26 Dic 2016, 11:14

Re: 5ta. Fecha - Concordia

Mensaje por pablomonterio » 02 Jun 2019, 17:43

Soy simpatizante (y un poquito mas) de Chapur.

Por esa razon, junto a una "retorcida" etica moral donde todos somos jueces intachables que livianamente señalamos la paja en el ojo ajeno.... Hoy no festejo el triunfo de ese auto.



.

Avatar de Usuario
RobertoLP
Mensajes: 2717
Registrado: 24 Oct 2016, 20:25
Ubicación: Santa Rosa La Pampa
Contactar:

Re: 5ta. Fecha - Concordia

Mensaje por RobertoLP » 02 Jun 2019, 18:08

Final - TN Clase 2 - Concordia - 5º Fecha

Pos Auto Piloto Marca Tiempo Diff

1 1 Nicolas POSCO FIESTA KINETIC 1:53.893
2 3 Julian LEPPHAILLE TOYOTA ETIOS 1:53.997 0.857
3 69 Agustin HERRERA RENAULT CLIO 1:54.028 1.618
4 14 Ever FRANETOVICH FIAT PALIO 1:54.353 2.063
5 25 Sebastian PEREZ CHEVROLET ONIX 1:54.651 2.849
6 120 Geronimo NUÑEZ NISSAN MARCH 1:54.835 3.910
7 31 Facundo LEANEZ TOYOTA ETIOS 1:54.789 4.343
8 111 Joel GASSMANN FIESTA KINETIC 1:54.923 4.845
9 18 Marcos FERNANDEZ NISSAN MARCH 1:54.858 5.939
10 28 Agustin LOPEZ DONZELLI RENAULT CLIO 1:55.024 6.772
11 114 Matias SIGNORELLI NISSAN MARCH 1:55.251 7.215
12 63 Renzo TESTA FIAT PALIO 1:54.871 7.728
13 36 Alejo BORGIANI VW TREND 1:55.542 9.017
14 65 Fernando GOMEZ FREDES PEUGEOT 208 1:55.186 9.389
15 66 Martin ALESSI FIESTA KINETIC 1:55.157 9.812
16 21 Gabriel SCORDIA FIESTA KINETIC 1:54.700 10.392
17 26 Damian KIRSTEIN PEUGEOT 208 1:54.829 11.328
18 24 Juan I. CANELA TOYOTA ETIOS 1:55.610 11.544
19 141 Juan Pablo ROTONDO FIESTA KINETIC 1:55.351 12.130
20 35 Diego LEANEZ TOYOTA ETIOS 1:55.610 12.585
21 48 Horacio COSTA TOYOTA ETIOS 1:55.733 13.156
22 54 Facundo ROTONDO FIESTA KINETIC 1:55.316 13.632
23 39 Alejandro VALDERREY FIAT PALIO 1:55.250 37.922
11 Gaston IANSA FIESTA KINETIC 1:54.571 5 Vueltas
78 Alejandro WEIMANN CHEVROLET CORSA 1:55.809 5 Vueltas
117 Stefano DI PALMA CHEVROLET ONIX 1:56.064 5 Vueltas
49 Juan Carlos POLINI RENAULT CLIO 1:55.575 8 Vueltas
6 Miguel CIAURRO VW TREND 1:54.979 10 Vueltas
13 Joel BORGOBELLO VW TREND 1:55.712 10 Vueltas
32 Sergio FERNANDEZ NISSAN MARCH 1:55.254 12 Vueltas
159 Agustín BONOMO CITROEN DS3 1:58.686 12 Vueltas
43 Walter LOPEZ NISSAN MARCH 1:55.069 13 Vueltas
5 Gaston GRASSO TOYOTA ETIOS 1:53.955 14 Vueltas

Avatar de Usuario
RobertoLP
Mensajes: 2717
Registrado: 24 Oct 2016, 20:25
Ubicación: Santa Rosa La Pampa
Contactar:

Re: 5ta. Fecha - Concordia

Mensaje por RobertoLP » 02 Jun 2019, 18:09

Final - TN Clase 3 - Concordia - 5º Fecha

P Nº Piloto Marca Tiempo Diff

1 2 Facundo CHAPUR FORD FOCUS 1:51.369
2 1 Leonel PERNIA VW VENTO 1:51.653 3.840
3 20 Juan PIPKIN CHEVROLET CRUZE 1:51.409 4.419
4 5 Emanuel MORIATIS FORD FOCUS 1:51.768 4.964
5 9 Manuel URCERA NEW CIVIC 1:51.581 6.518
6 92 Rudi BUNDZIAK C4 LOUNGE 1:51.394 6.724
7 100 Carlos OKULOVICH NEW CIVIC 1:51.883 7.497
8 18 Matias MUÑOZ MARCHESI FIAT TIPO 1:52.167 14.571
9 8 Fabian YANNANTUONI FIAT TIPO 1:52.173 14.860
10 15 Adrian CHIRIANO FORD FOCUS 1:52.224 17.032
11 69 Esteban CISTOLA FORD FOCUS 1:52.485 17.514
12 77 Mariano PERNIA CHEVROLET CRUZE 1:51.893 17.749
13 21 Leandro CARDUCCI FORD FOCUS 1:52.318 18.014
14 22 Adrian PERCAZ FORD FOCUS 1:52.324 18.465
15 59 Emmanuel CACERES FORD FOCUS 1:52.424 19.421
16 61 Diego NOCETI FORD FOCUS 1:52.866 21.783
17 6 Fabricio PEZZINI TOYOTA COROLLA 1:52.937 23.816
18 116 Christian BODRATO MIONETTO FORD FOCUS 1:52.928 25.770
19 113 Luciano VENTRICELLI TOYOTA COROLLA 1:52.576 27.814
20 72 Santiago ALVAREZ C4 LOUNGE 1:53.014 28.142
21 14 Ezequiel BOSIO C4 LOUNGE 1:52.369 28.493
22 17 Alfonso DOMENECH FORD FOCUS 1:51.684 1 Vuelta
23 25 Matias COHEN FORD FOCUS 1:53.840 1 Vuelta
24 138 Luis Jose DI PALMA PEUGEOT 408 1:52.025 4 Vueltas
25 122 Andre LAFON SEAT LEON 1:53.007 4 Vueltas
68 Julian SANTERO FORD FOCUS 1:52.092 10 Vueltas
82 Mauricio LAMBIRIS TOYOTA COROLLA 1:52.055 10 Vueltas
48 Manuel LUQUE CHEVROLET CRUZE 1:52.798 14 Vueltas
29 Juan P. ROSSOTTI VW VENTO 1:52.075 15 Vueltas
19 Leonel LARRAURI NEW CIVIC 1:53.579 15 Vueltas
123 Matias MENVIELLE CHEVROLET CRUZE 17 Vueltas
11 Jeronimo TETI CHEVROLET CRUZE 17 Vueltas
99 Juan M. ELUCHANS CHEVROLET CRUZE

Avatar de Usuario
martin gomez
Mensajes: 882
Registrado: 18 Oct 2016, 12:53
Ubicación: Lanus
Contactar:

Re: 5ta. Fecha - Concordia

Mensaje por martin gomez » 03 Jun 2019, 10:55

pablomonterio escribió:
02 Jun 2019, 17:43
Soy simpatizante (y un poquito mas) de Chapur.

Por esa razon, junto a una "retorcida" etica moral donde todos somos jueces intachables que livianamente señalamos la paja en el ojo ajeno.... Hoy no festejo el triunfo de ese auto.

no entendi a que haces referencia

paso algo con ese auto?

.

Avatar de Usuario
masanchez
Mensajes: 976
Registrado: 11 Nov 2016, 09:17
Ubicación: Florida, Vicente López
Contactar:

Re: 5ta. Fecha - Concordia

Mensaje por masanchez » 03 Jun 2019, 14:31

Se manejó todo el Facu. Y otro tanto Pernía.
Los comisarios entendieron el mensaje y le dieron inmunidad a Urcera. Feo.

Responder